Find Starlink 33698

NORAD ID: 63420 Int'l Des: 2025-065 Owner: SPXS Country: US Constellation: starlink operational
LEOCIRCULAR

現在のビュー

3D地球を読み込み中...

About Starlink 33698

Starlink 33698 (NORAD 63420) is a starlink constellation satellite (v2 mini) launched Mar 31, 2025 by SPXS of US. It operates in LEO, CIRCULAR orbit with a mass of 575.00 kg.

次回通過

Passes for default location (London). Set your location on the main map for personalized predictions.

高度履歴

Loading altitude history...

軌道要素

1 63420U 25065X 26263.21700550 .00010128 00000-0 37702-3 0 9996
2 63420 42.9999 88.1391 0001085 280.1267 79.9462 15.27583648 82599
Epoch: Sep 20, 2026 • Age: 23 hours

現在のステータス

高度 489.0 km
遠地点 / 近地点 N/A
速度 7.62 km/s
衛星直下点 -26.31°S, 17.82°W
打ち上げ日 Mar 31, 2025
運用期間 1.4 years
タイプ internet

技術仕様

分類 Payload
質量 575.00 kg
乾燥質量 530.00 kg
長さ 0.30 m
スパン 29.00 m
形状 ? Box + pan
製造者 SPXS
バスタイプ Starlink V2MO
フェーズステータス In Orbit
所有者/国 SPXS/US

Most Searched